[[{"header":{"parameterUnit":"m.s-1","parameterCategory":2,"la1":30.2991,"la2":30.254,"lo1":-89.0895,"lo2":-89.0444,"dy":0.0017,"dx":0.0017,"nx":28,"ny":28,"refTime":"2025-03-14T21:00:00:Z","depth":"0","parameterNumber":2,"parameterNumberName":"U-component_of_CURRENTS"},"data":[0,0,0,0,0,0,0,0,0,0,0,0,0,0,0,0,0,0,0,0,0,0,0,0,0,0,0,0,0,0,0,0,0,0,0,0,0,0,0,0,0,0,0,0,0,0,0,0,0,0,0,0,0,0,0,0,0,0,-0.1995,-0.1995,0,-0.2004,-0.2004,-0.2004,-0.1992,-0.1992,-0.1992,-0.1991,-0.1967,-0.1966,-0.1966,0,0,0,0,0,0,0,0,0,0,0,0,0,-0.1909,-0.191,-0.1995,-0.1995,-0.1995,-0.2004,-0.2004,-0.2004,-0.1992,-0.1992,-0.1992,-0.1991,-0.1967,-0.1966,-0.1966,0,0,0,0,0,0,0,0,0,0,0,0,0,-0.1933,-0.1911,-0.1995,-0.1992,-0.1992,-0.2004,-0.2004,-0.2004,-0.1992,-0.1992,-0.1991,-0.1991,-0.1967,-0.1966,-0.1966,-0.1969,0,0,-0.1964,-0.1963,0,0,0,0,0,0,0,0,-0.1932,-0.1936,-0.1992,-0.1992,-0.1992,-0.1998,-0.1964,-0.1991,-0.1992,-0.199,-0.1991,-0.1991,-0.1976,-0.1974,-0.1974,-0.1967,-0.1966,-0.1964,-0.1963,-0.1963,-0.1963,0,0,0,0,0,0,0,-0.193,-0.1935,-0.1996,-0.1992,-0.1993,-0.197,-0.1974,-0.1969,-0.1982,-0.199,-0.199,-0.1994,-0.1975,-0.1975,-0.1974,-0.1966,-0.1964,-0.1963,-0.1963,-0.1962,-0.1928,-0.1928,0,0,0,0,0,0,-0.1937,-0.1934,-0.1996,-0.1997,-0.1963,-0.1973,-0.1976,-0.1995,-0.1983,-0.1982,-0.1994,-0.1994,-0.1976,-0.1974,-0.1973,-0.1951,-0.1963,-0.1962,-0.1962,-0.1929,-0.1928,-0.1927,0,0,0,0,0,0,-0.1935,-0.1943,-0.1996,-0.1966,-0.1971,-0.1975,-0.1996,-0.1995,-0.1997,-0.1987,-0.1985,-0.1997,-0.1976,-0.1974,-0.1966,-0.195,-0.1962,-0.1961,-0.1929,-0.1928,-0.1928,-0.1922,0,0,0,0,0,0,-0.1933,-0.1943,-0.1952,-0.1967,-0.1973,-0.2007,-0.1996,-0.1996,-0.2001,-0.2,-0.1989,-0.1986,-0.1975,-0.1967,-0.1965,-0.195,-0.1961,-0.193,-0.1929,-0.1928,-0.1923,-0.1922,-0.192,0,0,0,0,0,-0.193,-0.1946,-0.1953,-0.196,-0.1989,-0.2007,-0.2008,-0.2007,-0.2002,-0.2006,-0.1993,-0.1986,-0.1959,-0.1966,-0.1964,-0.1948,-0.193,-0.1929,-0.1928,-0.1924,-0.1922,-0.192,0,0,0,0,0,0,-0.1903,-0.1948,-0.1955,-0.1981,-0.1996,-0.2006,-0.2008,-0.2011,-0.2005,-0.2001,-0.1987,-0.1984,-0.197,-0.1963,-0.1971,-0.1935,-0.1941,-0.1939,-0.1938,-0.1936,-0.1935,-0.1948,-0.196,0,0,0,0,0,-0.1906,-0.1931,-0.1964,-0.1978,-0.1992,-0.2001,-0.2006,-0.201,-0.201,-0.2008,-0.2,-0.1983,-0.1964,-0.1954,-0.1943,-0.1929,-0.1958,-0.1915,-0.1913,-0.1912,-0.1921,-0.1928,-0.1929,-0.1924,-0.1924,-0.1924,0,0,-0.1894,-0.1922,-0.1934,-0.1974,-0.1984,-0.2003,-0.2003,-0.2016,-0.2016,-0.2006,-0.1998,-0.1984,-0.1961,-0.1941,-0.1933,-0.1932,-0.1938,-0.1911,-0.191,-0.192,-0.1927,-0.1928,-0.1929,-0.1923,-0.1923,-0.1923,0,0,-0.1884,-0.1916,-0.1936,-0.1959,-0.1987,-0.1998,-0.2006,-0.2025,-0.2019,-0.2018,-0.1999,-0.1978,-0.1963,-0.1934,-0.1918,-0.1903,-0.1933,-0.1896,-0.1895,-0.1901,-0.1902,-0.1903,-0.1985,-0.1994,-0.189,-0.189,-0.189,0,-0.1867,-0.1904,-0.1938,-0.1964,-0.1981,-0.1999,-0.2018,-0.2017,-0.2024,-0.2018,-0.2016,-0.1982,-0.1956,-0.1922,-0.1907,-0.1899,-0.1939,-0.1903,-0.1901,-0.1902,-0.1903,-0.1987,-0.1996,-0.189,-0.189,-0.189,-0.189,0,-0.1874,-0.1906,-0.1918,-0.1963,-0.1983,-0.2003,-0.2022,-0.2028,-0.2027,-0.2023,-0.2003,-0.1974,-0.1957,-0.1931,-0.1912,-0.1894,-0.1937,-0.1903,-0.1909,-0.1904,-0.1992,-0.2002,-0.1889,-0.189,-0.189,-0.189,0,0,-0.1837,-0.1911,-0.1915,-0.1947,-0.1991,-0.2014,-0.2015,-0.2029,-0.2052,-0.2022,-0.2042,-0.1965,-0.1962,-0.1944,-0.1915,-0.1902,-0.1944,-0.1906,-0.1907,-0.1997,-0.2027,-0.2049,-0.2063,-0.1911,-0.1912,-0.1912,-0.2103,0,-0.1831,-0.1885,-0.1918,-0.1961,-0.1998,-0.2024,-0.204,-0.205,-0.2063,-0.2091,-0.2032,-0.2042,-0.1963,-0.1974,-0.1939,-0.1956,-0.1962,-0.19,-0.2011,-0.2017,-0.2041,-0.207,-0.2042,-0.2207,-0.2113,-0.2115,-0.2116,0,-0.1827,-0.1873,-0.1915,-0.1997,-0.2016,-0.2038,-0.2094,-0.211,-0.2133,-0.2145,-0.2124,-0.2123,-0.2096,-0.2042,-0.2044,-0.2015,-0.2019,-0.2021,-0.2028,-0.2054,-0.2054,-0.2187,-0.2228,-0.2224,-0.2131,-0.213,-0.2129,0,-0.1797,-0.1872,-0.1908,-0.1933,-0.2018,-0.2035,-0.2073,-0.2115,-0.2155,-0.2189,-0.2247,-0.2207,-0.2233,-0.2195,-0.2177,-0.213,-0.2219,-0.2158,-0.2188,-0.2194,-0.2194,-0.2197,-0.2245,-0.2163,-0.2162,-0.2162,-0.2161,0,-0.1785,-0.1819,-0.1902,-0.1926,-0.1995,-0.2042,-0.2114,-0.2147,-0.222,-0.2286,-0.2274,-0.2328,-0.2269,-0.2306,-0.2254,-0.2275,-0.228,-0.2215,-0.2233,-0.2196,-0.2197,-0.221,-0.2197,-0.2169,-0.2167,-0.2166,-0.2165,0,-0.1745,-0.1792,-0.1857,-0.195,-0.1983,-0.203,-0.2151,-0.2209,-0.2277,-0.2376,-0.2396,-0.2452,-0.2494,-0.2469,-0.2467,-0.2409,-0.2393,-0.2405,-0.2406,-0.2417,-0.241,-0.2397,-0.2464,-0.2397,-0.249,-0.2491,-0.2493,0,-0.1728,-0.1752,-0.1869,-0.1916,-0.1958,-0.2043,-0.211,-0.2209,-0.2283,-0.2438,-0.2488,-0.2583,-0.2623,-0.267,-0.26,-0.2586,-0.2484,-0.255,-0.2411,-0.2432,-0.2431,-0.2386,-0.2318,-0.2447,-0.2447,-0.2448,-0.2449,0,-0.1703,-0.174,-0.1792,-0.1888,-0.1964,-0.2057,-0.2158,-0.224,-0.2364,-0.247,-0.2593,-0.2649,-0.2729,-0.2709,-0.2706,-0.2646,-0.2511,-0.2563,-0.2561,-0.239,-0.2367,-0.2304,-0.2357,-0.2454,-0.2454,-0.2453,-0.2453,-0.2453,-0.1678,-0.1692,-0.1751,-0.1836,-0.1932,-0.2014,-0.2046,-0.2188,-0.23,-0.2427,-0.2582,-0.2655,-0.275,-0.2732,-0.2698,-0.2645,-0.257,-0.2554,-0.2548,-0.251,-0.2391,-0.2495,-0.2603,-0.2603,-0.2603,-0.2603,-0.2604,0,-0.1632,-0.163,-0.1697,-0.1772,-0.1832,-0.1904,-0.2025,-0.2045,-0.2137,-0.2321,-0.2431,-0.2625,-0.2671,-0.271,-0.2732,-0.2655,-0.2532,-0.2581,-0.2493,-0.2423,-0.2515,-0.2454,-0.256,-0.256,-0.256,-0.256,-0.256,-0.256,-0.1583,-0.1587,-0.1597,-0.163,-0.1681,-0.1676,-0.1703,-0.177,-0.1869,-0.2016,-0.2161,-0.2316,-0.245,-0.2807,-0.2779,-0.2676,-0.2556,-0.2522,-0.2467,-0.253,-0.2525,-0.2521,-0.2459,-0.2565,-0.2565,-0.2309,-0.2308,-0.2307]},{"header":{"parameterUnit":"m.s-1","parameterCategory":2,"la1":30.2991,"la2":30.254,"lo1":-89.0895,"lo2":-89.0444,"dy":0.0017,"dx":0.0017,"nx":28,"ny":28,"refTime":"2025-03-14T21:00:00:Z","depth":"0","parameterNumber":3,"parameterNumberName":"V-component_of_CURRENTS"},"data":[0,0,0,0,0,0,0,0,0,0,0,0,0,0,0,0,0,0,0,0,0,0,0,0,0,0,0,0,0,0,0,0,0,0,0,0,0,0,0,0,0,0,0,0,0,0,0,0,0,0,0,0,0,0,0,0,0,0,0.0151,0.0151,0,0.0213,0.0214,0.0215,0.0252,0.0252,0.0252,0.0252,0.036,0.0363,0.0366,0,0,0,0,0,0,0,0,0,0,0,0,0,0.012,0.0121,0.0151,0.0151,0.0152,0.0213,0.0214,0.0215,0.0252,0.0252,0.0252,0.0252,0.0359,0.0363,0.0366,0,0,0,0,0,0,0,0,0,0,0,0,0,0.0155,0.0121,0.0151,0.0176,0.0179,0.0212,0.0214,0.0215,0.0252,0.0252,0.0252,0.0252,0.0358,0.0362,0.0366,0.0395,0,0,0.038,0.0382,0,0,0,0,0,0,0,0,0.0153,0.0157,0.0172,0.0175,0.0178,0.0223,0.0242,0.0277,0.0252,0.0227,0.0252,0.0252,0.0317,0.0324,0.0339,0.04,0.0404,0.038,0.0383,0.0385,0.0386,0,0,0,0,0,0,0,0.0151,0.0155,0.0178,0.0172,0.0176,0.0203,0.0208,0.0249,0.0274,0.0229,0.0232,0.0235,0.0319,0.0335,0.0342,0.0406,0.038,0.0384,0.0387,0.0388,0.0534,0.0535,0,0,0,0,0,0,0.0135,0.0152,0.0176,0.018,0.0162,0.0203,0.0209,0.021,0.0273,0.0281,0.0235,0.0236,0.0327,0.0337,0.0346,0.0407,0.0385,0.0389,0.0391,0.0533,0.0534,0.0536,0,0,0,0,0,0,0.0134,0.0137,0.0174,0.0165,0.0172,0.0203,0.0205,0.0211,0.0226,0.0276,0.0286,0.0241,0.0328,0.034,0.0387,0.041,0.0391,0.0395,0.0531,0.0533,0.0535,0.0513,0,0,0,0,0,0,0.0133,0.0136,0.0132,0.0164,0.0171,0.0189,0.0205,0.0213,0.0226,0.0229,0.0285,0.0295,0.0329,0.038,0.0391,0.0416,0.0398,0.053,0.0532,0.0534,0.0513,0.0514,0.0516,0,0,0,0,0,0.0132,0.0119,0.0131,0.0134,0.0165,0.0188,0.0195,0.0219,0.0226,0.0232,0.0275,0.0293,0.0404,0.0385,0.0397,0.0424,0.0529,0.0531,0.0534,0.0512,0.0514,0.0516,0,0,0,0,0,0,0.0095,0.0123,0.0137,0.0131,0.0157,0.0193,0.0195,0.0216,0.0253,0.0256,0.0305,0.0318,0.037,0.04,0.0378,0.0475,0.0472,0.0477,0.045,0.0453,0.0454,0.0459,0.0402,0,0,0,0,0,0.0087,0.0087,0.0122,0.0116,0.0127,0.0162,0.0174,0.0193,0.0229,0.0244,0.0285,0.0336,0.0393,0.0422,0.0468,0.0517,0.0543,0.0546,0.0547,0.0548,0.0562,0.061,0.0617,0.0545,0.0545,0.0545,0,0,0.0069,0.0084,0.0083,0.0109,0.0129,0.0154,0.017,0.0183,0.0217,0.0252,0.0301,0.0339,0.0406,0.0463,0.049,0.049,0.0582,0.0552,0.0552,0.0566,0.0614,0.062,0.0626,0.0547,0.0547,0.0546,0,0,0.0035,0.0049,0.0043,0.0069,0.0098,0.0133,0.0136,0.0176,0.0207,0.0257,0.0297,0.035,0.0423,0.0483,0.0524,0.0565,0.0585,0.0574,0.0591,0.0637,0.0643,0.0648,0.068,0.0689,0.0579,0.0579,0.0578,0,0.0014,0.0018,0.0044,0.0054,0.008,0.0124,0.0142,0.0185,0.0237,0.0269,0.027,0.0395,0.0443,0.0538,0.0554,0.0571,0.0587,0.0573,0.0637,0.0643,0.0649,0.0681,0.0691,0.0578,0.0578,0.0578,0.0578,0,-0.0014,-0.0002,-0.0004,0.0036,0.0068,0.0085,0.0153,0.0189,0.0231,0.0275,0.0358,0.0425,0.0498,0.0527,0.0558,0.0633,0.0626,0.0626,0.0625,0.0655,0.0686,0.0697,0.0577,0.0577,0.0577,0.0577,0,0,-0.0073,-0.0031,-0.0029,-0.0008,0.0064,0.0084,0.0154,0.0229,0.0262,0.0333,0.0387,0.0501,0.052,0.0569,0.0612,0.0663,0.0718,0.0659,0.0662,0.0679,0.0802,0.0835,0.085,0.0714,0.0716,0.0718,0.0802,0,-0.0095,-0.0086,-0.0044,-0.0011,0.0011,0.0087,0.0142,0.0216,0.0282,0.034,0.044,0.0496,0.0543,0.0562,0.0629,0.069,0.0746,0.0695,0.0782,0.0785,0.0802,0.0865,0.0945,0.103,0.0812,0.0814,0.0815,0,-0.0127,-0.0109,-0.009,-0.0027,-0.0012,0.0018,0.0113,0.0163,0.0271,0.0315,0.0405,0.0466,0.0578,0.0589,0.0741,0.0696,0.0755,0.0804,0.0808,0.086,0.084,0.097,0.1057,0.1298,0.0832,0.083,0.0829,0,-0.0177,-0.0136,-0.0121,-0.0099,-0.0024,0.0004,0.0047,0.0147,0.0176,0.0287,0.0308,0.0455,0.0502,0.062,0.0746,0.0732,0.089,0.0881,0.0976,0.0977,0.1079,0.1086,0.1405,0.0989,0.0989,0.0989,0.0989,0,-0.0208,-0.0196,-0.0153,-0.0144,-0.0131,-0.0057,-0.0035,0.003,0.0101,0.0121,0.0269,0.0314,0.0506,0.0624,0.0741,0.0902,0.0892,0.1005,0.1016,0.1073,0.1078,0.1316,0.1373,0.0992,0.0991,0.0991,0.099,0,-0.026,-0.0234,-0.0219,-0.0164,-0.0159,-0.0152,-0.0118,-0.0118,-0.0028,0.0003,0.0029,0.0203,0.037,0.057,0.076,0.0881,0.1159,0.1086,0.1138,0.1155,0.1466,0.1514,0.1749,0.1839,0.1215,0.1216,0.1218,0,-0.0281,-0.0282,-0.0259,-0.0283,-0.0267,-0.0259,-0.0278,-0.02,-0.0203,-0.0071,-0.0077,0.0113,0.026,0.0585,0.0847,0.11,0.1229,0.1295,0.1306,0.1532,0.1595,0.1601,0.166,0.1425,0.1428,0.1431,0.1433,0,-0.0308,-0.031,-0.0308,-0.0378,-0.041,-0.0449,-0.0461,-0.0471,-0.0386,-0.0326,-0.0222,-0.0078,0.0302,0.0671,0.1026,0.1167,0.1465,0.1349,0.1592,0.181,0.1832,0.1906,0.1304,0.1454,0.1452,0.145,0.1449,0.1448,-0.0329,-0.0373,-0.0412,-0.0483,-0.055,-0.0655,-0.0692,-0.068,-0.0673,-0.0545,-0.0354,-0.0042,0.0563,0.11,0.1265,0.1743,0.1627,0.1898,0.194,0.193,0.2031,0.1468,0.162,0.1618,0.1618,0.1617,0.1616,0,-0.0356,-0.0447,-0.0529,-0.0645,-0.0777,-0.077,-0.0842,-0.086,-0.0857,-0.0599,-0.0412,0.038,0.0951,0.1489,0.214,0.2369,0.2377,0.248,0.2563,0.2593,0.214,0.217,0.2439,0.2439,0.2439,0.2438,0.2438,0.2438,-0.0384,-0.0499,-0.0585,-0.084,-0.0936,-0.109,-0.1135,-0.1113,-0.095,-0.0522,-0.0014,0.0431,0.1293,0.2366,0.2974,0.2989,0.3172,0.3116,0.3187,0.2954,0.2905,0.2858,0.2911,0.333,0.3331,0.3656,0.366,0.3663]}],[{"header":{"parameterUnit":"m.s-1","parameterCategory":2,"la1":30.2991,"la2":30.254,"lo1":-89.0895,"lo2":-89.0444,"dy":0.0017,"dx":0.0017,"nx":28,"ny":28,"refTime":"2025-03-14T21:00:00:Z","depth":"2","parameterNumber":2,"parameterNumberName":"U-component_of_CURRENTS"},"data":[0,0,0,0,0,0,0,0,0,0,0,0,0,0,0,0,0,0,0,0,0,0,0,0,0,0,0,0,0,0,0,0,0,0,0,0,0,0,0,0,0,0,0,0,0,0,0,0,0,0,0,0,0,0,0,0,0,0,-0.1952,-0.1953,0,-0.196,-0.196,-0.196,-0.1949,-0.1949,-0.1949,-0.1949,-0.1927,-0.1926,-0.1926,0,0,0,0,0,0,0,0,0,0,0,0,0,-0.1871,-0.1873,-0.1952,-0.1953,-0.1953,-0.196,-0.196,-0.196,-0.1949,-0.1949,-0.1949,-0.1948,-0.1927,-0.1926,-0.1926,0,0,0,0,0,0,0,0,0,0,0,0,0,-0.1893,-0.1873,-0.1952,-0.195,-0.195,-0.196,-0.196,-0.196,-0.1949,-0.1949,-0.1949,-0.1948,-0.1927,-0.1926,-0.1926,-0.1928,0,0,-0.1924,-0.1924,0,0,0,0,0,0,0,0,-0.1892,-0.1896,-0.195,-0.195,-0.195,-0.1955,-0.1923,-0.1948,-0.1949,-0.1947,-0.1949,-0.1948,-0.1935,-0.1934,-0.1933,-0.1927,-0.1926,-0.1924,-0.1924,-0.1923,-0.1923,0,0,0,0,0,0,0,-0.1891,-0.1896,-0.1953,-0.195,-0.195,-0.1929,-0.1932,-0.1928,-0.1941,-0.1948,-0.1947,-0.1951,-0.1934,-0.1934,-0.1933,-0.1926,-0.1924,-0.1923,-0.1923,-0.1923,-0.1892,-0.1891,0,0,0,0,0,0,-0.1898,-0.1895,-0.1953,-0.1954,-0.1922,-0.1931,-0.1934,-0.1952,-0.1941,-0.194,-0.1952,-0.1951,-0.1935,-0.1933,-0.1932,-0.1912,-0.1923,-0.1923,-0.1922,-0.1892,-0.1892,-0.1891,0,0,0,0,0,0,-0.1896,-0.1903,-0.1953,-0.1925,-0.193,-0.1933,-0.1953,-0.1952,-0.1955,-0.1945,-0.1943,-0.1955,-0.1935,-0.1933,-0.1926,-0.1912,-0.1922,-0.1922,-0.1893,-0.1892,-0.1892,-0.1887,0,0,0,0,0,0,-0.1894,-0.1903,-0.1913,-0.1926,-0.1932,-0.1964,-0.1953,-0.1953,-0.1958,-0.1957,-0.1947,-0.1944,-0.1934,-0.1927,-0.1926,-0.1911,-0.1921,-0.1893,-0.1893,-0.1892,-0.1888,-0.1886,-0.1885,0,0,0,0,0,-0.1891,-0.1907,-0.1913,-0.192,-0.1948,-0.1964,-0.1965,-0.1964,-0.1959,-0.1964,-0.1951,-0.1945,-0.192,-0.1927,-0.1925,-0.191,-0.1894,-0.1893,-0.1892,-0.1888,-0.1886,-0.1885,0,0,0,0,0,0,-0.1865,-0.1908,-0.1915,-0.194,-0.1954,-0.1963,-0.1965,-0.1968,-0.1963,-0.1959,-0.1946,-0.1943,-0.1931,-0.1924,-0.1932,-0.1898,-0.1903,-0.1902,-0.1901,-0.1899,-0.1898,-0.191,-0.1921,0,0,0,0,0,-0.1869,-0.1894,-0.1924,-0.1938,-0.1951,-0.1959,-0.1964,-0.1968,-0.1968,-0.1966,-0.1959,-0.1943,-0.1925,-0.1916,-0.1906,-0.1893,-0.1921,-0.188,-0.1879,-0.1877,-0.1886,-0.1893,-0.1893,-0.1888,-0.1888,-0.1888,0,0,-0.1858,-0.1884,-0.1896,-0.1934,-0.1943,-0.1961,-0.1961,-0.1973,-0.1974,-0.1964,-0.1958,-0.1944,-0.1922,-0.1904,-0.1896,-0.1896,-0.1903,-0.1876,-0.1875,-0.1884,-0.1892,-0.1892,-0.1893,-0.1887,-0.1887,-0.1887,0,0,-0.1847,-0.1879,-0.1898,-0.192,-0.1946,-0.1957,-0.1965,-0.1983,-0.1978,-0.1978,-0.1959,-0.1939,-0.1926,-0.1898,-0.1883,-0.1869,-0.1899,-0.1864,-0.1862,-0.1868,-0.1869,-0.187,-0.1952,-0.1961,-0.1858,-0.1858,-0.1858,0,-0.1831,-0.1867,-0.19,-0.1924,-0.1941,-0.1959,-0.1977,-0.1976,-0.1983,-0.1978,-0.1977,-0.1944,-0.192,-0.1887,-0.1873,-0.1865,-0.1905,-0.187,-0.1868,-0.1869,-0.187,-0.1954,-0.1963,-0.1857,-0.1858,-0.1858,-0.1858,0,-0.1838,-0.1869,-0.188,-0.1924,-0.1944,-0.1963,-0.1982,-0.1988,-0.1988,-0.1984,-0.1966,-0.1938,-0.1922,-0.1897,-0.1878,-0.1862,-0.1904,-0.187,-0.1875,-0.1871,-0.1959,-0.1969,-0.1857,-0.1857,-0.1857,-0.1857,0,0,-0.1801,-0.1873,-0.1877,-0.1908,-0.1951,-0.1974,-0.1976,-0.1989,-0.2012,-0.1983,-0.2004,-0.1929,-0.1927,-0.1909,-0.1881,-0.1869,-0.1911,-0.1873,-0.1874,-0.1964,-0.1994,-0.2012,-0.2025,-0.1878,-0.1879,-0.1879,-0.207,0,-0.1796,-0.1847,-0.188,-0.1922,-0.1957,-0.1983,-0.2,-0.201,-0.2023,-0.2051,-0.1994,-0.2005,-0.1927,-0.1939,-0.1905,-0.1922,-0.1929,-0.1867,-0.1978,-0.1983,-0.2004,-0.2032,-0.1805,-0.1953,-0.208,-0.2082,-0.2083,0,-0.179,-0.1835,-0.1876,-0.1956,-0.1975,-0.1997,-0.2053,-0.207,-0.2093,-0.2105,-0.2085,-0.2084,-0.2058,-0.2005,-0.2008,-0.1979,-0.1984,-0.1987,-0.1994,-0.2016,-0.2016,-0.1968,-0.1966,-0.2099,-0.2098,-0.2097,-0.2096,0,-0.1761,-0.1834,-0.1869,-0.1893,-0.1977,-0.1995,-0.2033,-0.2074,-0.2115,-0.2149,-0.2206,-0.2167,-0.2194,-0.2157,-0.214,-0.2094,-0.2183,-0.2123,-0.215,-0.2156,-0.1986,-0.1974,-0.2128,-0.2128,-0.2127,-0.2127,-0.2126,0,-0.1748,-0.1782,-0.1863,-0.1887,-0.1955,-0.2001,-0.2073,-0.2106,-0.2179,-0.2245,-0.2232,-0.2286,-0.223,-0.2267,-0.2216,-0.2236,-0.2242,-0.2177,-0.2194,-0.1984,-0.1971,-0.2096,-0.209,-0.2134,-0.2132,-0.2131,-0.213,0,-0.1708,-0.1754,-0.1818,-0.191,-0.1943,-0.199,-0.2111,-0.2168,-0.2236,-0.2334,-0.2355,-0.241,-0.2451,-0.2427,-0.2426,-0.2368,-0.2366,-0.2364,-0.2166,-0.2155,-0.2331,-0.2322,-0.2442,-0.2444,-0.2445,-0.2447,-0.2448,0,-0.1691,-0.1715,-0.183,-0.1878,-0.1919,-0.2004,-0.207,-0.2169,-0.2241,-0.2396,-0.2445,-0.2539,-0.2569,-0.2615,-0.2501,-0.2474,-0.2463,-0.2296,-0.213,-0.2352,-0.2358,-0.2346,-0.2335,-0.1933,-0.193,-0.1927,-0.1925,0,-0.1666,-0.1704,-0.1755,-0.185,-0.1925,-0.2016,-0.2117,-0.2195,-0.2318,-0.2415,-0.2536,-0.2583,-0.2622,-0.2476,-0.2453,-0.2376,-0.2276,-0.2249,-0.2514,-0.1888,-0.1887,-0.1888,-0.1891,-0.1902,-0.1905,-0.1906,-0.1908,-0.1909,-0.1643,-0.1655,-0.1714,-0.1795,-0.1892,-0.1968,-0.1997,-0.2098,-0.2194,-0.2254,-0.2451,-0.2413,-0.2428,-0.2235,-0.2171,-0.2083,-0.2212,-0.2083,-0.2084,-0.2089,-0.1995,-0.1996,-0.202,-0.2023,-0.2026,-0.2028,-0.203,0,-0.1587,-0.1589,-0.1655,-0.1727,-0.1783,-0.186,-0.1974,-0.1914,-0.1937,-0.2044,-0.2095,-0.1938,-0.19,-0.1899,-0.173,-0.1759,-0.1652,-0.1696,-0.1523,-0.1549,-0.1571,-0.1442,-0.1325,-0.1323,-0.1321,-0.132,0,0,-0.1534,-0.1536,-0.154,-0.1571,-0.1626,-0.1615,-0.1636,-0.1556,-0.1548,-0.1465,-0.1466,-0.1653,-0.1781,-0.15,-0.1494,-0.1372,-0.1416,-0.1303,-0.1862,-0.1675,-0.1694,-0.1795,-0.1628,0,0,0,0,0]},{"header":{"parameterUnit":"m.s-1","parameterCategory":2,"la1":30.2991,"la2":30.254,"lo1":-89.0895,"lo2":-89.0444,"dy":0.0017,"dx":0.0017,"nx":28,"ny":28,"refTime":"2025-03-14T21:00:00:Z","depth":"2","parameterNumber":3,"parameterNumberName":"V-component_of_CURRENTS"},"data":[0,0,0,0,0,0,0,0,0,0,0,0,0,0,0,0,0,0,0,0,0,0,0,0,0,0,0,0,0,0,0,0,0,0,0,0,0,0,0,0,0,0,0,0,0,0,0,0,0,0,0,0,0,0,0,0,0,0,0.0106,0.0106,0,0.0166,0.0167,0.0168,0.0206,0.0206,0.0206,0.0206,0.0313,0.0316,0.0319,0,0,0,0,0,0,0,0,0,0,0,0,0,0.0077,0.0077,0.0106,0.0106,0.0107,0.0166,0.0167,0.0168,0.0206,0.0206,0.0206,0.0206,0.0313,0.0316,0.0319,0,0,0,0,0,0,0,0,0,0,0,0,0,0.0111,0.0077,0.0105,0.0131,0.0134,0.0166,0.0167,0.0168,0.0206,0.0206,0.0206,0.0206,0.0311,0.0316,0.032,0.0347,0,0,0.0333,0.0335,0,0,0,0,0,0,0,0,0.0108,0.0112,0.0127,0.0129,0.0132,0.0176,0.0196,0.0229,0.0206,0.0181,0.0206,0.0206,0.027,0.0278,0.0292,0.0352,0.0356,0.0333,0.0336,0.0338,0.0339,0,0,0,0,0,0,0,0.0106,0.011,0.0132,0.0127,0.013,0.0157,0.0162,0.0203,0.0228,0.0183,0.0185,0.0188,0.0273,0.0288,0.0295,0.0358,0.0333,0.0337,0.034,0.0342,0.0486,0.0487,0,0,0,0,0,0,0.0091,0.0107,0.013,0.0134,0.0117,0.0157,0.0163,0.0164,0.0226,0.0235,0.0188,0.019,0.0281,0.029,0.0299,0.036,0.0338,0.0342,0.0344,0.0485,0.0486,0.0487,0,0,0,0,0,0,0.009,0.0092,0.0128,0.012,0.0126,0.0157,0.0159,0.0165,0.018,0.0229,0.0239,0.0195,0.0281,0.0293,0.034,0.0363,0.0344,0.0348,0.0483,0.0485,0.0487,0.0465,0,0,0,0,0,0,0.0089,0.0092,0.0088,0.0119,0.0126,0.0142,0.0159,0.0166,0.018,0.0183,0.0239,0.0249,0.0282,0.0333,0.0344,0.0369,0.0351,0.0482,0.0484,0.0486,0.0464,0.0466,0.0468,0,0,0,0,0,0.0088,0.0075,0.0087,0.009,0.0119,0.0142,0.0148,0.0173,0.018,0.0186,0.0228,0.0247,0.0356,0.0337,0.035,0.0377,0.048,0.0483,0.0486,0.0464,0.0466,0.0468,0,0,0,0,0,0,0.0052,0.0078,0.0092,0.0086,0.0112,0.0147,0.0149,0.0169,0.0206,0.0209,0.0258,0.0271,0.0323,0.0353,0.0331,0.0427,0.0424,0.0429,0.0403,0.0405,0.0407,0.0411,0.0355,0,0,0,0,0,0.0044,0.0044,0.0077,0.0071,0.0082,0.0117,0.0128,0.0148,0.0182,0.0198,0.0238,0.0289,0.0346,0.0374,0.042,0.0468,0.0495,0.0497,0.0499,0.05,0.0513,0.0561,0.0568,0.0497,0.0497,0.0497,0,0,0.0026,0.004,0.004,0.0064,0.0084,0.0108,0.0124,0.0137,0.0171,0.0205,0.0254,0.0292,0.0359,0.0415,0.0442,0.0442,0.0533,0.0503,0.0504,0.0517,0.0565,0.0571,0.0577,0.0499,0.0498,0.0498,0,0,-0.0008,0.0006,0.0,0.0025,0.0053,0.0088,0.0091,0.013,0.0161,0.021,0.025,0.0303,0.0375,0.0434,0.0475,0.0516,0.0537,0.0525,0.0542,0.0587,0.0593,0.0599,0.0631,0.064,0.053,0.053,0.053,0,-0.0029,-0.0025,0.0001,0.001,0.0035,0.0079,0.0096,0.0138,0.0189,0.0221,0.0223,0.0348,0.0395,0.0488,0.0505,0.0521,0.0538,0.0524,0.0588,0.0594,0.06,0.0632,0.0642,0.0529,0.0529,0.0529,0.0529,0,-0.0057,-0.0046,-0.0048,-0.001,0.0022,0.0037,0.0104,0.0141,0.0183,0.0227,0.0309,0.0376,0.0449,0.0477,0.0508,0.0583,0.0576,0.0577,0.0576,0.0606,0.0638,0.0648,0.0528,0.0529,0.0529,0.0529,0,0,-0.0115,-0.0075,-0.0073,-0.0054,0.0016,0.0035,0.0105,0.0178,0.0211,0.0282,0.0336,0.0448,0.0468,0.0517,0.056,0.0611,0.0666,0.0609,0.0611,0.0629,0.0752,0.0782,0.0796,0.0664,0.0666,0.0668,0.0753,0,-0.0138,-0.0131,-0.009,-0.0059,-0.0039,0.0037,0.009,0.0163,0.023,0.0287,0.0387,0.0443,0.049,0.051,0.0577,0.0639,0.0695,0.0643,0.0733,0.0736,0.0749,0.0811,0.0676,0.0744,0.0763,0.0765,0.0766,0,-0.017,-0.0153,-0.0137,-0.0077,-0.0063,-0.0033,0.006,0.0109,0.0217,0.0261,0.0351,0.0413,0.0524,0.0536,0.0687,0.0644,0.0704,0.0754,0.0758,0.0805,0.0787,0.0722,0.0763,0.0784,0.0783,0.0781,0.078,0,-0.022,-0.0181,-0.0168,-0.0147,-0.0075,-0.0047,-0.0005,0.0093,0.0123,0.0233,0.0254,0.0401,0.0449,0.0567,0.0693,0.0681,0.0838,0.083,0.0923,0.0924,0.0843,0.0835,0.0939,0.0939,0.0939,0.0938,0.0938,0,-0.0251,-0.0241,-0.02,-0.0192,-0.018,-0.0108,-0.0086,-0.0022,0.0049,0.0068,0.0216,0.0262,0.0454,0.0572,0.0688,0.0848,0.0841,0.095,0.0963,0.0832,0.0822,0.0882,0.0875,0.0941,0.0941,0.094,0.094,0,-0.0302,-0.0279,-0.0265,-0.0213,-0.0208,-0.0202,-0.0169,-0.0169,-0.0079,-0.0047,-0.002,0.0152,0.0319,0.0518,0.0708,0.0827,0.0979,0.1031,0.0868,0.0863,0.1033,0.1023,0.1153,0.1155,0.1157,0.1158,0.116,0,-0.0324,-0.0325,-0.0305,-0.033,-0.0314,-0.0306,-0.0326,-0.0249,-0.0252,-0.012,-0.0126,0.0063,0.0202,0.0525,0.0731,0.0967,0.1011,0.1012,0.0993,0.1064,0.1062,0.1049,0.1038,0.0862,0.086,0.0859,0.0858,0,-0.0351,-0.0353,-0.0352,-0.0423,-0.0456,-0.0497,-0.0509,-0.052,-0.0436,-0.0379,-0.0276,-0.0138,0.0187,0.042,0.075,0.0868,0.0974,0.1002,0.1115,0.0841,0.08,0.0795,0.079,0.0849,0.085,0.0851,0.0851,0.0851,-0.0371,-0.0417,-0.0456,-0.0529,-0.0596,-0.0705,-0.0741,-0.0749,-0.075,-0.0667,-0.0459,-0.026,0.0061,0.0461,0.0697,0.0904,0.094,0.0992,0.099,0.099,0.0955,0.0921,0.0984,0.0985,0.0987,0.0988,0.0989,0,-0.0413,-0.0494,-0.0576,-0.0694,-0.0826,-0.0818,-0.0893,-0.0936,-0.0963,-0.0809,-0.0668,-0.036,-0.0032,0.0313,0.0606,0.085,0.0801,0.0898,0.0781,0.0788,0.0795,0.0746,0.0722,0.0723,0.0723,0.0723,0,0,-0.0447,-0.0561,-0.065,-0.0896,-0.0987,-0.1144,-0.1191,-0.1217,-0.1142,-0.1045,-0.0862,-0.055,-0.0076,0.0095,0.0386,0.0554,0.0602,0.0554,0.0731,0.0559,0.0563,0.0804,0.0733,0,0,0,0,0]}],[{"header":{"parameterUnit":"m.s-1","parameterCategory":2,"la1":30.2991,"la2":30.254,"lo1":-89.0895,"lo2":-89.0444,"dy":0.0017,"dx":0.0017,"nx":28,"ny":28,"refTime":"2025-03-14T21:00:00:Z","depth":"4","parameterNumber":2,"parameterNumberName":"U-component_of_CURRENTS"},"data":[0,0,0,0,0,0,0,0,0,0,0,0,0,0,0,0,0,0,0,0,0,0,0,0,0,0,0,0,0,0,0,0,0,0,0,0,0,0,0,0,0,0,0,0,0,0,0,0,0,0,0,0,0,0,0,0,0,0,-0.1147,-0.1148,0,-0.1208,-0.1209,-0.1209,-0.1257,-0.1257,-0.1258,-0.1259,-0.1283,-0.1283,-0.1283,0,0,0,0,0,0,0,0,0,0,0,0,0,-0.0998,-0.1,-0.1147,-0.1148,-0.1149,-0.1208,-0.1209,-0.1209,-0.1256,-0.1257,-0.1258,-0.1259,-0.1283,-0.1283,-0.1283,0,0,0,0,0,0,0,0,0,0,0,0,0,-0.1058,-0.1001,-0.1147,-0.1182,-0.1186,-0.1208,-0.1209,-0.121,-0.1256,-0.1257,-0.1258,-0.1259,-0.1283,-0.1283,-0.1283,-0.1262,0,0,-0.1283,-0.1283,0,0,0,0,0,0,0,0,-0.1055,-0.1064,-0.1176,-0.118,-0.1184,-0.1229,-0.1166,-0.1226,-0.1256,-0.1226,-0.1259,-0.126,-0.1263,-0.1265,-0.127,-0.1263,-0.1264,-0.1283,-0.1283,-0.1283,-0.1283,0,0,0,0,0,0,0,-0.1051,-0.1061,-0.1168,-0.1177,-0.1182,-0.117,-0.118,-0.1177,-0.1235,-0.1229,-0.1233,-0.1244,-0.1265,-0.127,-0.1271,-0.1264,-0.1283,-0.1283,-0.1283,-0.1283,-0.1302,-0.1303,0,0,0,0,0,0,-0.1053,-0.1057,-0.1166,-0.117,-0.1124,-0.1172,-0.1183,-0.1211,-0.1236,-0.1242,-0.1244,-0.1247,-0.1269,-0.1271,-0.1272,-0.1307,-0.1283,-0.1283,-0.1283,-0.1302,-0.1302,-0.1303,0,0,0,0,0,0,-0.1049,-0.1062,-0.1164,-0.1116,-0.1129,-0.1174,-0.1204,-0.1211,-0.124,-0.1248,-0.1253,-0.1268,-0.127,-0.1272,-0.129,-0.1306,-0.1283,-0.1283,-0.1301,-0.1302,-0.1303,-0.1338,0,0,0,0,0,0,-0.1045,-0.1061,-0.1081,-0.1117,-0.1132,-0.1194,-0.1204,-0.1212,-0.1246,-0.1251,-0.127,-0.1272,-0.1271,-0.129,-0.129,-0.1305,-0.1283,-0.13,-0.1301,-0.1302,-0.1336,-0.134,-0.1343,0,0,0,0,0,-0.104,-0.1066,-0.1082,-0.1095,-0.1159,-0.1195,-0.1201,-0.1233,-0.1246,-0.1262,-0.1276,-0.1273,-0.1296,-0.1291,-0.129,-0.1306,-0.13,-0.1301,-0.1302,-0.1334,-0.1339,-0.1343,0,0,0,0,0,0,-0.1007,-0.1074,-0.1093,-0.1138,-0.1171,-0.1204,-0.1227,-0.1242,-0.1266,-0.1276,-0.1278,-0.1281,-0.1301,-0.1297,-0.1291,-0.1314,-0.1298,-0.1299,-0.1322,-0.1326,-0.133,-0.1346,-0.1283,0,0,0,0,0,-0.101,-0.1054,-0.1102,-0.1137,-0.116,-0.1195,-0.1214,-0.1236,-0.1261,-0.1274,-0.1286,-0.1296,-0.13,-0.131,-0.1311,-0.1324,-0.1334,-0.1334,-0.1337,-0.134,-0.1353,-0.1339,-0.1342,-0.1307,-0.1307,-0.1307,0,0,-0.1007,-0.1049,-0.1074,-0.1134,-0.1166,-0.1191,-0.121,-0.1251,-0.1261,-0.127,-0.1294,-0.1307,-0.1305,-0.1321,-0.133,-0.1325,-0.1368,-0.1341,-0.1344,-0.1355,-0.1341,-0.1344,-0.1347,-0.1307,-0.1307,-0.1307,0,0,-0.1014,-0.1065,-0.11,-0.1132,-0.1186,-0.1202,-0.1218,-0.1263,-0.1279,-0.13,-0.1308,-0.1337,-0.1341,-0.1352,-0.1352,-0.1374,-0.1382,-0.1374,-0.1411,-0.1397,-0.14,-0.1402,-0.1476,-0.1485,-0.1381,-0.1381,-0.1381,0,-0.1005,-0.1057,-0.1111,-0.1146,-0.1165,-0.1209,-0.1228,-0.1248,-0.1288,-0.1303,-0.1313,-0.1341,-0.1353,-0.1367,-0.1393,-0.1382,-0.1403,-0.1395,-0.1402,-0.1404,-0.1406,-0.148,-0.1489,-0.1383,-0.1383,-0.1382,-0.1382,0,-0.1028,-0.1074,-0.1098,-0.1155,-0.1178,-0.1208,-0.124,-0.1271,-0.1294,-0.1314,-0.1344,-0.1362,-0.1387,-0.1394,-0.1409,-0.1433,-0.1457,-0.1403,-0.1392,-0.1412,-0.1489,-0.1498,-0.1385,-0.1385,-0.1384,-0.1384,0,0,-0.0994,-0.1094,-0.1104,-0.1127,-0.1185,-0.1202,-0.1232,-0.1266,-0.1306,-0.1327,-0.1367,-0.1387,-0.1421,-0.1426,-0.1442,-0.1452,-0.1518,-0.1453,-0.1451,-0.153,-0.1558,-0.1453,-0.1454,-0.1455,-0.1455,-0.1456,-0.1627,0,-0.0992,-0.105,-0.1096,-0.113,-0.1155,-0.1204,-0.1237,-0.1275,-0.1313,-0.137,-0.1385,-0.1436,-0.142,-0.1468,-0.1463,-0.1507,-0.1534,-0.1482,-0.1524,-0.1527,-0.1431,-0.1455,-0.1457,-0.1634,-0.1636,-0.1637,-0.1638,0,-0.0992,-0.1027,-0.1065,-0.1133,-0.1152,-0.1178,-0.1241,-0.1283,-0.1366,-0.1405,-0.1442,-0.1479,-0.1535,-0.1506,-0.1558,-0.1526,-0.1557,-0.1575,-0.158,-0.147,-0.1435,-0.1595,-0.1654,-0.1653,-0.1652,-0.1651,-0.165,0,-0.0932,-0.1003,-0.1026,-0.1047,-0.113,-0.1158,-0.1211,-0.1297,-0.1348,-0.1451,-0.1514,-0.1544,-0.1602,-0.1599,-0.1631,-0.1619,-0.1675,-0.1653,-0.159,-0.1588,-0.1618,-0.1613,-0.1675,-0.1675,-0.1674,-0.1674,-0.1673,0,-0.0906,-0.0932,-0.1007,-0.1022,-0.105,-0.1137,-0.1201,-0.1267,-0.1388,-0.1466,-0.154,-0.1594,-0.1623,-0.1651,-0.166,-0.1644,-0.1687,-0.1616,-0.1604,-0.1639,-0.1633,-0.1629,-0.1621,-0.1681,-0.1679,-0.1678,-0.1677,0,-0.085,-0.0911,-0.0928,-0.1003,-0.1027,-0.1051,-0.1178,-0.1244,-0.1382,-0.1488,-0.1536,-0.1655,-0.1721,-0.1725,-0.1763,-0.1691,-0.1686,-0.1662,-0.1762,-0.1751,-0.1633,-0.1626,-0.1671,-0.1668,-0.1665,-0.1664,-0.1662,0,-0.0833,-0.0839,-0.0882,-0.0889,-0.0923,-0.0988,-0.1053,-0.1204,-0.1274,-0.1507,-0.1543,-0.1684,-0.174,-0.1723,-0.1723,-0.1726,-0.1679,-0.1686,-0.1613,-0.1639,-0.1624,-0.162,-0.1615,-0.1658,-0.1658,-0.1657,-0.1656,0,-0.0763,-0.078,-0.0789,-0.0808,-0.0848,-0.0907,-0.1009,-0.1053,-0.1263,-0.1387,-0.1538,-0.1612,-0.1684,-0.1695,-0.1677,-0.1662,-0.1682,-0.1663,-0.1668,-0.16,-0.1624,-0.1611,-0.1609,-0.1648,-0.165,-0.165,-0.1651,0,-0.0688,-0.0675,-0.0697,-0.0702,-0.0765,-0.0836,-0.0892,-0.1013,-0.1119,-0.1376,-0.1416,-0.1577,-0.1686,-0.1665,-0.1645,-0.1616,-0.1618,-0.1559,-0.157,-0.1579,-0.1452,-0.1463,-0.1439,0,0,0,0,0,-0.06,-0.0593,-0.0601,-0.0622,-0.0698,-0.0744,-0.0878,-0.0956,-0.1139,-0.1217,-0.1327,-0.1406,-0.1483,-0.1539,-0.1492,-0.1583,-0.1586,-0.152,-0.1515,-0.1604,-0.1613,-0.1461,0,0,0,0,0,0,-0.0541,-0.0543,-0.0564,-0.0575,-0.059,-0.0686,-0.0775,-0.0896,-0.0941,-0.1126,-0.1158,-0.1307,-0.1362,-0.1483,-0.1459,-0.1471,-0.1438,-0.1599,-0.1595,-0.1598,-0.1607,-0.1614,-0.1461,0,0,0,0,0]},{"header":{"parameterUnit":"m.s-1","parameterCategory":2,"la1":30.2991,"la2":30.254,"lo1":-89.0895,"lo2":-89.0444,"dy":0.0017,"dx":0.0017,"nx":28,"ny":28,"refTime":"2025-03-14T21:00:00:Z","depth":"4","parameterNumber":3,"parameterNumberName":"V-component_of_CURRENTS"},"data":[0,0,0,0,0,0,0,0,0,0,0,0,0,0,0,0,0,0,0,0,0,0,0,0,0,0,0,0,0,0,0,0,0,0,0,0,0,0,0,0,0,0,0,0,0,0,0,0,0,0,0,0,0,0,0,0,0,0,-0.0253,-0.0253,0,-0.0202,-0.0201,-0.02,-0.0168,-0.0168,-0.0167,-0.0167,-0.012,-0.0119,-0.0118,0,0,0,0,0,0,0,0,0,0,0,0,0,-0.0317,-0.0316,-0.0253,-0.0253,-0.0252,-0.0202,-0.0201,-0.02,-0.0168,-0.0168,-0.0167,-0.0167,-0.0121,-0.0119,-0.0118,0,0,0,0,0,0,0,0,0,0,0,0,0,-0.028,-0.0316,-0.0253,-0.023,-0.0227,-0.0202,-0.0201,-0.02,-0.0168,-0.0168,-0.0167,-0.0167,-0.0121,-0.012,-0.0118,-0.0114,0,0,-0.0113,-0.0112,0,0,0,0,0,0,0,0,-0.0282,-0.0278,-0.0234,-0.0231,-0.0228,-0.0191,-0.0206,-0.0171,-0.0168,-0.019,-0.0167,-0.0167,-0.0144,-0.0141,-0.0132,-0.0112,-0.011,-0.0113,-0.0112,-0.0111,-0.0111,0,0,0,0,0,0,0,-0.0285,-0.028,-0.0233,-0.0233,-0.023,-0.0219,-0.0214,-0.0199,-0.017,-0.0188,-0.0186,-0.018,-0.0143,-0.0134,-0.0131,-0.0109,-0.0113,-0.0112,-0.0111,-0.011,-0.0093,-0.0094,0,0,0,0,0,0,-0.0291,-0.0282,-0.0234,-0.0231,-0.0255,-0.0218,-0.0212,-0.0203,-0.017,-0.0164,-0.018,-0.0179,-0.0136,-0.0133,-0.0129,-0.0127,-0.0111,-0.011,-0.0109,-0.0093,-0.0093,-0.0094,0,0,0,0,0,0,-0.0293,-0.0288,-0.0237,-0.0256,-0.0248,-0.0218,-0.0208,-0.0202,-0.0192,-0.0164,-0.0158,-0.0175,-0.0136,-0.0131,-0.0122,-0.0125,-0.0109,-0.0108,-0.0092,-0.0093,-0.0093,-0.0121,0,0,0,0,0,0,-0.0295,-0.0288,-0.0288,-0.0256,-0.0248,-0.0225,-0.0208,-0.0201,-0.0189,-0.0186,-0.0158,-0.0153,-0.0135,-0.0125,-0.012,-0.0122,-0.0106,-0.0091,-0.0092,-0.0093,-0.0119,-0.0122,-0.0125,0,0,0,0,0,-0.0297,-0.03,-0.0288,-0.0283,-0.0247,-0.0225,-0.022,-0.0197,-0.0189,-0.0186,-0.0171,-0.0154,-0.0128,-0.0124,-0.0119,-0.012,-0.0091,-0.0092,-0.0093,-0.0118,-0.0122,-0.0125,0,0,0,0,0,0,-0.0333,-0.0296,-0.0283,-0.0275,-0.0252,-0.0219,-0.0217,-0.02,-0.0185,-0.0184,-0.0159,-0.0153,-0.0148,-0.0133,-0.0129,-0.012,-0.0107,-0.0107,-0.0128,-0.0131,-0.0134,-0.0122,-0.0105,0,0,0,0,0,-0.0339,-0.0331,-0.0294,-0.0291,-0.0279,-0.0248,-0.0238,-0.022,-0.02,-0.0193,-0.0174,-0.0158,-0.0149,-0.0139,-0.0128,-0.012,-0.0092,-0.012,-0.0122,-0.0125,-0.0113,-0.0091,-0.0091,-0.0097,-0.0097,-0.0097,0,0,-0.0354,-0.0333,-0.033,-0.0298,-0.0279,-0.0272,-0.0241,-0.0226,-0.0228,-0.0191,-0.0191,-0.0169,-0.0151,-0.0144,-0.014,-0.0131,-0.0106,-0.0126,-0.0129,-0.0115,-0.0092,-0.0092,-0.0091,-0.0098,-0.0098,-0.0098,0,0,-0.038,-0.0358,-0.0358,-0.034,-0.031,-0.0291,-0.0288,-0.0254,-0.0245,-0.0236,-0.0216,-0.0192,-0.0178,-0.0159,-0.0151,-0.0163,-0.0126,-0.0164,-0.0162,-0.0142,-0.0141,-0.014,-0.0091,-0.0086,-0.0161,-0.0161,-0.0161,0,-0.0401,-0.0394,-0.0357,-0.0352,-0.0349,-0.0304,-0.031,-0.0294,-0.0265,-0.0253,-0.0243,-0.0203,-0.0184,-0.0171,-0.0169,-0.0168,-0.014,-0.015,-0.0145,-0.0143,-0.0141,-0.0092,-0.0085,-0.0162,-0.0162,-0.0162,-0.0162,0,-0.0422,-0.042,-0.042,-0.0401,-0.0392,-0.0389,-0.0361,-0.0346,-0.0326,-0.0299,-0.0276,-0.0243,-0.0208,-0.0207,-0.0186,-0.0166,-0.0144,-0.0154,-0.0134,-0.0142,-0.009,-0.0082,-0.0164,-0.0164,-0.0163,-0.0163,0,0,-0.0463,-0.0441,-0.0443,-0.045,-0.042,-0.0419,-0.0413,-0.039,-0.0374,-0.0341,-0.032,-0.0288,-0.0239,-0.0225,-0.0197,-0.0172,-0.0128,-0.0151,-0.0149,-0.0097,-0.0058,-0.0047,-0.0037,-0.0139,-0.0138,-0.0137,-0.0023,0,-0.0495,-0.0513,-0.0488,-0.0514,-0.0522,-0.0482,-0.0482,-0.0452,-0.0409,-0.0373,-0.0325,-0.0289,-0.0259,-0.0226,-0.0199,-0.0146,-0.0111,-0.0156,-0.0061,-0.0058,-0.0044,-0.003,-0.0134,-0.0017,-0.0015,-0.0014,-0.0013,0,-0.052,-0.0534,-0.0567,-0.0573,-0.0572,-0.058,-0.0557,-0.0544,-0.0471,-0.0428,-0.0363,-0.0304,-0.024,-0.0226,-0.0128,-0.0156,-0.01,-0.0064,-0.0059,-0.0031,-0.0033,-0.001,0.0002,0.0,-0.0001,-0.0002,-0.0002,0,-0.0573,-0.0588,-0.0627,-0.0629,-0.0623,-0.0632,-0.0625,-0.0562,-0.0548,-0.0446,-0.0402,-0.0315,-0.0267,-0.0194,-0.0093,-0.0101,0.0005,-0.0002,0.0062,0.0064,0.0033,0.003,0.0063,0.0062,0.0062,0.0062,0.0061,0,-0.0609,-0.0639,-0.066,-0.0679,-0.0729,-0.0692,-0.0706,-0.0661,-0.0594,-0.0563,-0.0433,-0.0377,-0.0258,-0.0174,-0.0091,0.0017,0.0012,0.008,0.0093,0.0019,0.0014,0.0039,0.0035,0.0066,0.0065,0.0064,0.0064,0,-0.0648,-0.0657,-0.0709,-0.0736,-0.0754,-0.0787,-0.0789,-0.0775,-0.0686,-0.0636,-0.06,-0.043,-0.0283,-0.0168,-0.0034,0.002,0.0119,0.0151,0.009,0.0095,0.0172,0.0165,0.0258,0.0259,0.026,0.0261,0.0262,0,-0.0667,-0.0696,-0.0772,-0.0816,-0.0835,-0.0877,-0.0895,-0.0838,-0.0806,-0.0665,-0.0638,-0.0468,-0.0348,-0.0139,-0.0014,0.016,0.0165,0.0221,0.0186,0.0188,0.0192,0.0183,0.0175,0.0264,0.0264,0.0264,0.0265,0,-0.0711,-0.074,-0.0785,-0.0873,-0.0926,-0.0978,-0.0987,-0.0976,-0.0879,-0.0818,-0.0649,-0.0483,-0.0315,-0.0127,0.0008,0.012,0.0189,0.0233,0.0231,0.02,0.0196,0.0197,0.0188,0.0268,0.0268,0.0268,0.0267,0,-0.075,-0.0785,-0.084,-0.0911,-0.0995,-0.1033,-0.1043,-0.0986,-0.0946,-0.0779,-0.0733,-0.0504,-0.0375,-0.0146,-0.0027,0.0098,0.013,0.0145,0.0149,0.0146,0.0072,0.0049,0.01,0,0,0,0,0,-0.078,-0.0794,-0.0866,-0.0937,-0.1024,-0.1061,-0.1074,-0.1055,-0.098,-0.0875,-0.0796,-0.0622,-0.0355,-0.0217,-0.009,-0.002,0.0132,0.0131,0.0144,0.029,0.0285,0.0217,0,0,0,0,0,0,-0.079,-0.0845,-0.0854,-0.0944,-0.0999,-0.107,-0.1086,-0.1039,-0.0961,-0.0866,-0.0721,-0.0612,-0.0357,-0.0437,-0.0093,-0.0047,-0.0026,0.0267,0.0269,0.0292,0.0288,0.0285,0.0213,0,0,0,0,0]}]]